AZU2703 SBRJ-SBJV

Flight info

Callsign AZU2703
Flight time 1h 11m
Altitude 36000
Route NAXOP UZ45 RAXIT
Aircraft A20N/M-SDE2E3FGHIRWXY/LB1

Departure

Time 2026-04-17 21:15
Airport Santos Dumont Airport (SBRJ)

Arrival

Time 2026-04-17 22:26
Airport Lauro Carneiro de Loyola Airport (SBJV)
Time Latitude Longitude Altitude Speed Heading
2026-04-17 21:03 -22.91173 -43.16589 18 ft 0 kts 265°
2026-04-17 21:09 -22.91172 -43.16576 18 ft 3 kts 265°
2026-04-17 21:10 -22.91171 -43.16557 19 ft 2 kts 265°
2026-04-17 21:10 -22.91170 -43.16538 21 ft 2 kts 265°
2026-04-17 21:10 -22.91170 -43.16532 21 ft 0 kts 265°
2026-04-17 21:11 -22.91167 -43.16530 21 ft 0 kts 352°
2026-04-17 21:11 -22.91166 -43.16530 21 ft 1 kts 352°
2026-04-17 21:11 -22.91151 -43.16532 19 ft 4 kts 353°
2026-04-17 21:11 -22.91104 -43.16536 18 ft 11 kts 356°
2026-04-17 21:12 -22.91038 -43.16540 18 ft 18 kts 356°
2026-04-17 21:12 -22.90880 -43.16551 18 ft 27 kts 356°
2026-04-17 21:12 -22.90677 -43.16566 18 ft 31 kts 356°
2026-04-17 21:12 -22.90550 -43.16576 18 ft 1 kts 355°
2026-04-17 21:13 -22.90534 -43.16576 18 ft 3 kts
2026-04-17 21:13 -22.90518 -43.16557 18 ft 5 kts 48°
2026-04-17 21:13 -22.90501 -43.16512 18 ft 8 kts 84°
2026-04-17 21:13 -22.90494 -43.16439 19 ft 11 kts 84°
2026-04-17 21:14 -22.90475 -43.16353 20 ft 12 kts 77°
2026-04-17 21:14 -22.90522 -43.16321 20 ft 9 kts 174°
2026-04-17 21:14 -22.90810 -43.16301 20 ft 84 kts 176°
2026-04-17 21:14 -22.91626 -43.16241 47 ft 148 kts 176°
2026-04-17 21:15 -22.92609 -43.15973 754 ft 148 kts 149°
2026-04-17 21:15 -22.93488 -43.15270 1300 ft 165 kts 138°
2026-04-17 21:15 -22.94370 -43.14363 1685 ft 185 kts 135°
2026-04-17 21:15 -22.95338 -43.13308 2047 ft 209 kts 135°
2026-04-17 21:16 -22.96453 -43.12167 2507 ft 230 kts 138°
2026-04-17 21:16 -22.97690 -43.10976 3201 ft 241 kts 140°
2026-04-17 21:16 -22.99109 -43.10048 4116 ft 239 kts 167°
2026-04-17 21:16 -23.00726 -43.09991 5024 ft 237 kts 197°
2026-04-17 21:17 -23.02165 -43.10832 5988 ft 233 kts 221°
2026-04-17 21:17 -23.03438 -43.12009 6628 ft 251 kts 223°
2026-04-17 21:17 -23.04788 -43.13293 7146 ft 268 kts 222°
2026-04-17 21:17 -23.06201 -43.14649 7990 ft 272 kts 227°
2026-04-17 21:18 -23.07230 -43.16390 8846 ft 277 kts 243°
2026-04-17 21:18 -23.08087 -43.18289 9718 ft 282 kts 243°
2026-04-17 21:18 -23.08947 -43.20244 10320 ft 296 kts 243°
2026-04-17 21:18 -23.09876 -43.22343 10619 ft 319 kts 243°
2026-04-17 21:19 -23.10873 -43.24577 11009 ft 335 kts 243°
2026-04-17 21:19 -23.11902 -43.26873 11789 ft 339 kts 243°
2026-04-17 21:19 -23.12941 -43.29184 12571 ft 343 kts 243°
2026-04-17 21:19 -23.13996 -43.31528 13365 ft 347 kts 244°
2026-04-17 21:20 -23.15063 -43.33896 14082 ft 350 kts 244°
2026-04-17 21:20 -23.16125 -43.36254 14780 ft 353 kts 244°
2026-04-17 21:20 -23.17236 -43.38723 15496 ft 356 kts 244°
2026-04-17 21:20 -23.18317 -43.41129 16162 ft 360 kts 244°
2026-04-17 21:21 -23.19421 -43.43586 16814 ft 363 kts 244°
2026-04-17 21:21 -23.20537 -43.46072 17440 ft 367 kts 244°
2026-04-17 21:21 -23.21661 -43.48579 18105 ft 370 kts 244°
2026-04-17 21:21 -23.22796 -43.51110 18633 ft 373 kts 244°
2026-04-17 21:22 -23.23938 -43.53658 19178 ft 376 kts 245°
2026-04-17 21:22 -23.25082 -43.56214 19725 ft 379 kts 245°
2026-04-17 21:22 -23.26247 -43.58817 20254 ft 382 kts 245°
2026-04-17 21:22 -23.27415 -43.61427 20795 ft 385 kts 245°
2026-04-17 21:23 -23.28576 -43.64025 21320 ft 388 kts 245°
2026-04-17 21:23 -23.29762 -43.66680 21845 ft 391 kts 245°
2026-04-17 21:23 -23.30954 -43.69351 22360 ft 394 kts 245°
2026-04-17 21:23 -23.32154 -43.72039 22887 ft 397 kts 245°
2026-04-17 21:24 -23.33365 -43.74754 23391 ft 400 kts 245°
2026-04-17 21:24 -23.34581 -43.77483 23862 ft 401 kts 245°
2026-04-17 21:24 -23.35803 -43.80224 24379 ft 401 kts 245°
2026-04-17 21:24 -23.37022 -43.82964 24873 ft 402 kts 246°
2026-04-17 21:25 -23.38243 -43.85707 25348 ft 403 kts 246°
2026-04-17 21:25 -23.39456 -43.88436 25828 ft 404 kts 246°
2026-04-17 21:25 -23.40685 -43.91202 26291 ft 406 kts 246°
2026-04-17 21:25 -23.41916 -43.93975 26756 ft 407 kts 246°
2026-04-17 21:26 -23.43148 -43.96752 27209 ft 408 kts 246°
2026-04-17 21:26 -23.44386 -43.99542 27655 ft 410 kts 246°
2026-04-17 21:26 -23.45628 -44.02346 28106 ft 411 kts 246°
2026-04-17 21:26 -23.46875 -44.05161 28529 ft 413 kts 246°
2026-04-17 21:27 -23.48126 -44.07985 28945 ft 414 kts 246°
2026-04-17 21:27 -23.49379 -44.10817 29342 ft 415 kts 246°
2026-04-17 21:27 -23.50623 -44.13661 29739 ft 416 kts 248°
2026-04-17 21:27 -23.51670 -44.16607 30104 ft 417 kts 253°
2026-04-17 21:28 -23.52445 -44.19650 30436 ft 417 kts 257°
2026-04-17 21:28 -23.53138 -44.22729 30786 ft 418 kts 257°
2026-04-17 21:28 -23.53842 -44.25802 31153 ft 419 kts 257°
2026-04-17 21:28 -23.54552 -44.28887 31590 ft 417 kts 257°
2026-04-17 21:29 -23.55255 -44.31942 32049 ft 415 kts 257°
2026-04-17 21:29 -23.55952 -44.34985 32514 ft 413 kts 257°
2026-04-17 21:29 -23.56617 -44.37891 32942 ft 411 kts 257°
2026-04-17 21:29 -23.57305 -44.40903 33365 ft 409 kts 257°
2026-04-17 21:30 -23.57990 -44.43911 33776 ft 407 kts 257°
2026-04-17 21:30 -23.58673 -44.46907 34143 ft 405 kts 257°
2026-04-17 21:30 -23.59353 -44.49895 34496 ft 403 kts 257°
2026-04-17 21:30 -23.60026 -44.52855 34834 ft 401 kts 257°
2026-04-17 21:31 -23.60696 -44.55807 35155 ft 400 kts 257°
2026-04-17 21:31 -23.61354 -44.58709 35474 ft 398 kts 257°
2026-04-17 21:31 -23.62018 -44.61637 35776 ft 397 kts 257°
2026-04-17 21:31 -23.62678 -44.64553 35873 ft 395 kts 257°
2026-04-17 21:32 -23.64002 -44.70404 35881 ft 394 kts 257°
2026-04-17 21:32 -23.65305 -44.76176 35883 ft 394 kts 257°
2026-04-17 21:33 -23.66616 -44.81996 35879 ft 394 kts 257°
2026-04-17 21:33 -23.67925 -44.87812 35881 ft 394 kts 257°
2026-04-17 21:34 -23.69233 -44.93639 35882 ft 394 kts 257°
2026-04-17 21:35 -23.71187 -45.02362 35884 ft 394 kts 257°
2026-04-17 21:35 -23.72491 -45.08196 35885 ft 395 kts 257°
2026-04-17 21:36 -23.73789 -45.14015 35886 ft 395 kts 257°
2026-04-17 21:36 -23.75096 -45.19881 35885 ft 395 kts 257°
2026-04-17 21:37 -23.76392 -45.25718 35886 ft 395 kts 257°
2026-04-17 21:37 -23.77679 -45.31558 35880 ft 395 kts 257°
2026-04-17 21:38 -23.78970 -45.37419 35887 ft 396 kts 257°
2026-04-17 21:38 -23.80247 -45.43232 35873 ft 396 kts 257°
2026-04-17 21:39 -23.81318 -45.48108 35870 ft 396 kts 257°
2026-04-17 21:39 -23.82612 -45.54002 35883 ft 396 kts 257°
2026-04-17 21:40 -23.83893 -45.59864 35873 ft 396 kts 257°
2026-04-17 21:40 -23.85381 -45.66680 35882 ft 396 kts 257°
2026-04-17 21:41 -23.86448 -45.71556 35865 ft 396 kts 257°
2026-04-17 21:41 -23.87731 -45.77424 35866 ft 396 kts 257°
2026-04-17 21:42 -23.89008 -45.83282 35876 ft 396 kts 257°
2026-04-17 21:42 -23.90284 -45.89145 35864 ft 396 kts 257°
2026-04-17 21:43 -23.91556 -45.95005 35858 ft 396 kts 257°
2026-04-17 21:43 -23.92819 -46.00832 35851 ft 396 kts 257°
2026-04-17 21:44 -23.94088 -46.06702 35847 ft 396 kts 257°
2026-04-17 21:44 -23.95362 -46.12601 35826 ft 396 kts 257°
2026-04-17 21:45 -23.96622 -46.18449 35830 ft 397 kts 257°
2026-04-17 21:45 -23.97889 -46.24342 35831 ft 397 kts 257°
2026-04-17 21:46 -23.99525 -46.30126 35825 ft 398 kts 252°
2026-04-17 21:46 -24.01447 -46.36118 35833 ft 399 kts 252°
2026-04-17 21:47 -24.03217 -46.41678 35835 ft 399 kts 252°
2026-04-17 21:47 -24.05046 -46.47425 35849 ft 399 kts 252°
2026-04-17 21:48 -24.06873 -46.53175 35858 ft 399 kts 252°
2026-04-17 21:48 -24.08688 -46.58890 35857 ft 399 kts 252°
2026-04-17 21:49 -24.10520 -46.64671 35861 ft 400 kts 252°
2026-04-17 21:49 -24.12340 -46.70421 35859 ft 400 kts 252°
2026-04-17 21:50 -24.14159 -46.76174 35862 ft 399 kts 252°
2026-04-17 21:50 -24.15973 -46.81923 35867 ft 399 kts 252°
2026-04-17 21:51 -24.17777 -46.87649 35856 ft 400 kts 252°
2026-04-17 21:51 -24.19589 -46.93405 35868 ft 400 kts 252°
2026-04-17 21:52 -24.21398 -46.99164 35861 ft 400 kts 252°
2026-04-17 21:52 -24.23211 -47.04941 35855 ft 400 kts 252°
2026-04-17 21:53 -24.25014 -47.10699 35853 ft 399 kts 252°
2026-04-17 21:53 -24.26811 -47.16480 35848 ft 400 kts 253°
2026-04-17 21:54 -24.28489 -47.22261 35847 ft 400 kts 253°
2026-04-17 21:54 -24.30172 -47.28094 35854 ft 401 kts 253°
2026-04-17 21:55 -24.31865 -47.33926 35844 ft 401 kts 253°
2026-04-17 21:55 -24.33563 -47.39765 35839 ft 401 kts 253°
2026-04-17 21:56 -24.35256 -47.45604 35834 ft 401 kts 253°
2026-04-17 21:56 -24.36933 -47.51393 35831 ft 401 kts 253°
2026-04-17 21:57 -24.38621 -47.57229 35826 ft 400 kts 253°
2026-04-17 21:57 -24.40308 -47.63065 35823 ft 402 kts 252°
2026-04-17 21:58 -24.42838 -47.68548 35778 ft 407 kts 237°
2026-04-17 21:58 -24.44648 -47.70953 35553 ft 412 kts 230°
2026-04-17 21:58 -24.46769 -47.73040 35309 ft 417 kts 222°
2026-04-17 21:58 -24.49108 -47.74947 34957 ft 419 kts 221°
2026-04-17 21:59 -24.51458 -47.76877 34190 ft 425 kts 221°
2026-04-17 21:59 -24.53849 -47.78853 33266 ft 432 kts 221°
2026-04-17 21:59 -24.56253 -47.80838 32519 ft 431 kts 220°
2026-04-17 21:59 -24.58653 -47.82820 31721 ft 431 kts 220°
2026-04-17 22:00 -24.61055 -47.84806 30872 ft 434 kts 220°
2026-04-17 22:00 -24.63443 -47.86780 30086 ft 435 kts 220°
2026-04-17 22:00 -24.65867 -47.88786 29306 ft 433 kts 219°
2026-04-17 22:00 -24.68256 -47.90760 28835 ft 425 kts 219°
2026-04-17 22:01 -24.70590 -47.92688 28442 ft 416 kts 219°
2026-04-17 22:01 -24.72897 -47.94598 27900 ft 411 kts 219°
2026-04-17 22:01 -24.75139 -47.96454 27380 ft 406 kts 219°
2026-04-17 22:01 -24.77382 -47.98313 26848 ft 401 kts 219°
2026-04-17 22:02 -24.79604 -48.00156 26328 ft 397 kts 219°
2026-04-17 22:02 -24.81805 -48.01981 25815 ft 393 kts 219°
2026-04-17 22:02 -24.83987 -48.03793 25270 ft 390 kts 219°
2026-04-17 22:02 -24.86141 -48.05582 24776 ft 386 kts 219°
2026-04-17 22:03 -24.88284 -48.07361 24274 ft 383 kts 219°
2026-04-17 22:03 -24.90410 -48.09129 23751 ft 381 kts 219°
2026-04-17 22:03 -24.92490 -48.10857 23229 ft 378 kts 219°
2026-04-17 22:03 -24.94603 -48.12615 22711 ft 373 kts 219°
2026-04-17 22:04 -24.96641 -48.14311 22216 ft 369 kts 219°
2026-04-17 22:04 -24.98676 -48.16005 21719 ft 365 kts 219°
2026-04-17 22:04 -25.00695 -48.17687 21232 ft 361 kts 219°
2026-04-17 22:04 -25.02696 -48.19354 20741 ft 358 kts 219°
2026-04-17 22:05 -25.04672 -48.21001 20253 ft 354 kts 219°
2026-04-17 22:05 -25.06633 -48.22638 19745 ft 352 kts 219°
2026-04-17 22:05 -25.08554 -48.24241 19291 ft 348 kts 219°
2026-04-17 22:05 -25.10517 -48.25881 18874 ft 362 kts 219°
2026-04-17 22:06 -25.12536 -48.27567 18668 ft 365 kts 219°
2026-04-17 22:06 -25.14565 -48.29260 18239 ft 368 kts 219°
2026-04-17 22:06 -25.16655 -48.31007 17364 ft 375 kts 219°
2026-04-17 22:06 -25.18748 -48.32756 16594 ft 377 kts 219°
2026-04-17 22:07 -25.20823 -48.34489 16261 ft 367 kts 219°
2026-04-17 22:07 -25.22819 -48.36151 16107 ft 355 kts 217°
2026-04-17 22:07 -25.24973 -48.37538 15855 ft 362 kts 206°
2026-04-17 22:07 -25.27375 -48.38424 15551 ft 365 kts 194°
2026-04-17 22:08 -25.29855 -48.38824 15249 ft 364 kts 189°
2026-04-17 22:08 -25.32369 -48.39169 14945 ft 362 kts 189°
2026-04-17 22:08 -25.34868 -48.39522 14651 ft 361 kts 190°
2026-04-17 22:08 -25.37358 -48.39879 14359 ft 360 kts 190°
2026-04-17 22:09 -25.39839 -48.40236 14094 ft 360 kts 190°
2026-04-17 22:09 -25.42320 -48.40592 13887 ft 357 kts 190°
2026-04-17 22:09 -25.44778 -48.40945 13669 ft 357 kts 190°
2026-04-17 22:09 -25.47255 -48.41300 13124 ft 358 kts 190°
2026-04-17 22:10 -25.49694 -48.41649 12843 ft 351 kts 190°
2026-04-17 22:10 -25.52123 -48.41997 12544 ft 353 kts 190°
2026-04-17 22:10 -25.53739 -48.42229 12320 ft 352 kts 190°
2026-04-17 22:10 -25.56985 -48.42695 11924 ft 350 kts 190°
2026-04-17 22:11 -25.58579 -48.42924 11729 ft 348 kts 190°
2026-04-17 22:11 -25.61760 -48.43380 11428 ft 342 kts 190°
2026-04-17 22:11 -25.63311 -48.43575 11350 ft 333 kts 189°
2026-04-17 22:11 -25.65571 -48.43809 11235 ft 321 kts 188°
2026-04-17 22:12 -25.67757 -48.44019 11112 ft 308 kts 188°
2026-04-17 22:12 -25.69874 -48.44226 10796 ft 303 kts 188°
2026-04-17 22:12 -25.71974 -48.44440 10402 ft 302 kts 189°
2026-04-17 22:12 -25.74062 -48.44658 10025 ft 300 kts 189°
2026-04-17 22:13 -25.76135 -48.44877 9628 ft 298 kts 189°
2026-04-17 22:13 -25.78167 -48.45092 9235 ft 296 kts 189°
2026-04-17 22:13 -25.80190 -48.45305 9059 ft 287 kts 189°
2026-04-17 22:13 -25.82192 -48.45518 8880 ft 291 kts 189°
2026-04-17 22:14 -25.84209 -48.45733 8625 ft 289 kts 189°
2026-04-17 22:14 -25.86199 -48.45943 8379 ft 287 kts 189°
2026-04-17 22:14 -25.88191 -48.46154 8126 ft 286 kts 189°
2026-04-17 22:14 -25.90133 -48.46544 7888 ft 281 kts 199°
2026-04-17 22:15 -25.92014 -48.47149 7691 ft 282 kts 199°
2026-04-17 22:15 -25.93898 -48.47742 7478 ft 280 kts 199°
2026-04-17 22:15 -25.95774 -48.48328 7275 ft 280 kts 199°
2026-04-17 22:15 -25.97648 -48.48912 7072 ft 279 kts 199°
2026-04-17 22:16 -25.99497 -48.49488 6979 ft 271 kts 199°
2026-04-17 22:16 -26.01254 -48.50034 6881 ft 260 kts 199°
2026-04-17 22:16 -26.02956 -48.50564 6789 ft 248 kts 199°
2026-04-17 22:16 -26.04581 -48.51071 6697 ft 237 kts 199°
2026-04-17 22:17 -26.06148 -48.51562 6494 ft 232 kts 200°
2026-04-17 22:17 -26.07700 -48.52052 6211 ft 232 kts 200°
2026-04-17 22:17 -26.09253 -48.52542 5899 ft 231 kts 199°
2026-04-17 22:17 -26.10799 -48.53030 5624 ft 230 kts 199°
2026-04-17 22:18 -26.12328 -48.53511 5449 ft 230 kts 199°
2026-04-17 22:18 -26.13876 -48.53999 5277 ft 231 kts 199°
2026-04-17 22:18 -26.15418 -48.54482 5109 ft 230 kts 199°
2026-04-17 22:18 -26.16956 -48.54965 4937 ft 228 kts 199°
2026-04-17 22:19 -26.18488 -48.55445 4770 ft 229 kts 199°
2026-04-17 22:19 -26.19997 -48.55919 4605 ft 228 kts 199°
2026-04-17 22:19 -26.21518 -48.56397 4435 ft 228 kts 199°
2026-04-17 22:19 -26.23051 -48.56880 4266 ft 228 kts 198°
2026-04-17 22:20 -26.24577 -48.57363 4101 ft 227 kts 200°
2026-04-17 22:20 -26.26005 -48.58093 3954 ft 223 kts 216°
2026-04-17 22:20 -26.27192 -48.59120 3858 ft 211 kts 221°
2026-04-17 22:20 -26.28302 -48.60127 3775 ft 201 kts 221°
2026-04-17 22:21 -26.29392 -48.61101 3498 ft 201 kts 221°
2026-04-17 22:21 -26.30498 -48.62086 3251 ft 201 kts 220°
2026-04-17 22:21 -26.31594 -48.63063 2940 ft 202 kts 222°
2026-04-17 22:21 -26.32368 -48.64297 2830 ft 197 kts 260°
2026-04-17 22:22 -26.32268 -48.65792 2766 ft 198 kts 293°
2026-04-17 22:22 -26.31584 -48.67113 2576 ft 196 kts 308°
2026-04-17 22:22 -26.30710 -48.68282 2334 ft 195 kts 312°
2026-04-17 22:22 -26.29854 -48.69473 2100 ft 197 kts 311°
2026-04-17 22:23 -26.28998 -48.70651 1866 ft 191 kts 310°
2026-04-17 22:23 -26.28207 -48.71753 1627 ft 174 kts 311°
2026-04-17 22:23 -26.27496 -48.72740 1393 ft 153 kts 311°
2026-04-17 22:23 -26.26861 -48.73621 1198 ft 138 kts 311°
2026-04-17 22:24 -26.26275 -48.74433 1029 ft 137 kts 311°
2026-04-17 22:24 -26.25678 -48.75261 867 ft 136 kts 311°
2026-04-17 22:24 -26.25086 -48.76084 697 ft 135 kts 310°
2026-04-17 22:24 -26.24500 -48.76895 520 ft 131 kts 309°
2026-04-17 22:25 -26.23924 -48.77683 395 ft 132 kts 309°
2026-04-17 22:25 -26.23356 -48.78486 212 ft 132 kts 307°
2026-04-17 22:25 -26.22790 -48.79273 34 ft 129 kts 309°
2026-04-17 22:25 -26.22327 -48.79920 25 ft 71 kts 314°
2026-04-17 22:26 -26.22138 -48.80161 26 ft 19 kts 310°
2026-04-17 22:26 -26.22123 -48.80180 29 ft 5 kts 310°
2026-04-17 22:26 -26.22072 -48.80248 25 ft 17 kts 310°
2026-04-17 22:26 -26.22013 -48.80367 24 ft 13 kts 255°
2026-04-17 22:27 -26.22024 -48.80374 27 ft 8 kts 195°
2026-04-17 22:27 -26.22126 -48.80363 25 ft 18 kts 152°
2026-04-17 22:27 -26.22221 -48.80242 23 ft 23 kts 128°
2026-04-17 22:27 -26.22298 -48.80112 23 ft 14 kts 154°
2026-04-17 22:28 -26.22343 -48.80129 23 ft 6 kts 213°
2026-04-17 22:28 -26.22372 -48.80149 24 ft 0 kts 217°